www.pogodaiklimat.ru

Погода и климат >> Архив погоды >> Мальдивы >> Gan


ПОГОДА в Gan

  • Прогноз погоды в Gan
  • Монитор погоды в Gan
  • Климат города

АРХИВ ПОГОДЫ в Gan

Время (UTC), дата Ветер
(напр.,м/с)
 
Видим.   Явления Облачность Т
(С)
Тd
(С)
f
(%)
Тe
(С)
Тes
(С)
Комфортность P
(гПа)
Po
(гПа)
Тmin
(С)
Tmax
(С)
R
(мм)
R24
(мм)
S
(см)
06 14.05 В 2 10 км 6/3 540 м
[Cb cap Ac und Ci fib]
+30.9 +25.4 73 +45 +55 опасность
перегрева
1010.9 1010.7
09 14.05 В 3 10 км 5/4 540 м
[Cb cap Ac cuf Ci fib]
+30.8 +25.7 74 +45 +53 опасность
перегрева
1008.3 1008.1
12 14.05 В 2 10 км 9/3 540 м
[Cu med, cong Ac cuf Ci fib]
+29.8 +25.1 76 +43 +44 опасность
перегрева
1008.3 1008.1 +31.4
15 14.05 нст 1 10 км 9/3 540 м
[Cu med, cong Ac trans Ci fib]
+28.8 +25.1 80 +42 +42 опасность
перегрева
1010.1 1009.9
18 14.05 СВ 2 10 км 9/3 540 м
[Cu med, cong Ac trans Ci sp]
+28.8 +25.5 82 +42 +42 опасность
перегрева
1010.5 1010.3
21 14.05 СВ 2 10 км 8/3 540 м
[Cu med, cong Ci sp]
+28.8 +25.7 83 +43 +43 опасность
перегрева
1008.2 1008.0
00 15.05 штиль 0 12 км 9/3 540 м
[Cu med, cong Ci sp]
+27.8 +25.2 86 +40 +40 очень
душно
1007.8 1007.6
03 15.05 нст 1 12 км 8/3 540 м
[Cu med, cong Ac lent Ci sp]
+30.2 +25.7 77 +45 +47 опасность
перегрева
1010.0 1009.8 +26.2
06 15.05 СВ 2 12 км 9/3 540 м
[Cu med, cong Ac As Ci sp]
+31.0 +25.4 72 +45 +53 опасность
перегрева
1010.0 1009.8
09 15.05 нст 1 12 км 9/4 540 м
[Cb cap Ac cuf Ci sp]
+31.4 +25.8 72 +46 +53 опасность
перегрева
1007.7 1007.5
12 15.05 З 2 12 км 9/4 540 м
[Cb cap Ac cuf Ci sp]
+30.8 +25.4 73 +45 +46 опасность
перегрева
1007.2 1007.0 +32.0
15 15.05 Ю 5 8000 м слабый ливневой дождь 9/5 480 м
[Cb cap Ac cuf Ci sp]
+25.4 +24.7 96 +36 +36 очень
душно
1009.8 1009.6
18 15.05 ЮЗ 3 10 км {ливн. осадки} 9/3 500 м
[Cu med, cong Ac cuf Ci sp]
+27.4 +25.0 87 +39 +39 очень
душно
1010.5 1010.3 10
21 15.05 З 4 10 км 9/3 540 м
[Cu med, cong Ac trans Ci sp]
+27.4 +25.6 90 +40 +40 очень
душно
1008.4 1008.2
00 16.05 ЮЗ 3 10 км 9/3 540 м
[Cu med, cong Ac trans Ci sp]
+28.0 +25.0 84 +40 +40 очень
душно
1007.5 1007.3 10
03 16.05 Ю 3 10 км 9/3 540 м
[Cu med, cong Ci sp]
+29.0 +25.6 82 +43 +45 опасность
перегрева
1009.6 1009.4 +24.6
06 16.05 Ю 3 12 км 9/3 540 м
[Cu med, cong Ac trans Ci fib]
+30.5 +26.0 77 +46 +52 опасность
перегрева
1009.5 1009.3
09 16.05 Ю 3 12 км 9/3 540 м
[Cu med, cong Ci fib]
+30.1 +25.4 76 +44 +52 опасность
перегрева
1007.2 1007.0
12 16.05 Ю 3 12 км 9/3 540 м
[Cu med, cong Ac trans Ci sp]
+30.0 +25.2 76 +44 +44 опасность
перегрева
1007.0 1006.8 +31.0
15 16.05 Ю 3 12 км 8/3 540 м
[Cu med, cong Ac trans Ci sp]
+28.1 +24.5 81 +40 +40 очень
душно
1008.8 1008.6
18 16.05 Ю 2 12 км 6/3 540 м
[Cu med, cong Ci sp]
+28.2 +25.1 83 +41 +41 опасность
перегрева
1009.6 1009.4
15 18.05 ЮЗ 2 12 км 8/3 540 м
[Cu med, cong Ac trans Ci sp]
+28.5 +25.7 85 +42 +42 опасность
перегрева
1008.4 1008.2
18 18.05 Ю 3 10 км {ливн. осадки} 8/4 500 м
[Cb cap Ac trans Ci sp]
+27.1 +25.7 92 +40 +40 очень
душно
1009.0 1008.8 2
21 18.05 Ю 3 10 км 9/4 500 м
[Cu med, cong Ac trans Ci sp]
+28.4 +25.3 83 +41 +41 опасность
перегрева
1007.1 1006.9
00 19.05 Ю 3 9000 м слабый ливневой дождь 10/5 500 м
[Cb cap As op]
+26.7 +25.3 92 +39 +39 очень
душно
1006.7 1006.5 8
03 19.05 ЮЗ 4 10 км {ливн. осадки} 9/4 500 м
[Cb cap Ac cuf Cs]
+27.2 +24.9 87 +39 +40 очень
душно
1008.4 1008.2 +24.8
06 19.05 ЮВ 4 1000 м ливневой дождь 10/5 480 м
[Cb cap As op]
+26.7 +26.0 96 +40 +41 очень
душно
1009.2 1009.0 4
09 19.05 ЮЗ 4 3000 м гроза, ливневой дождь 10/5 480 м
[Cb cap As op]
+24.8 +24.8 100 +35 +36 очень
душно
1008.2 1008.0
12 19.05 З 3 6000 м слабый дождь {гроза, ливн. осадки} 10/4 480 м
[Cu med, cong As op]
+24.0 +24.0 100 +33 +33 очень
душно
1009.0 1008.8 +29.5 100
15 19.05 нст 1 6000 м слабый дождь 10/4 480 м
[Cu med, cong As op]
+24.2 +24.1 99 +33 +33 очень
душно
1010.7 1010.5
18 19.05 З 5 7000 м слабый дождь 10/4 480 м
[Cu med, cong As op]
+25.1 +24.7 98 +35 +35 очень
душно
1010.7 1010.5 21
21 19.05 З 9 7000 м слабый дождь 10/4 480 м
[Cu med, cong As op]
+26.2 +25.1 94 +38 +38 очень
душно
1009.1 1008.9
00 20.05 З 8 9000 м {дождь} 10/3 500 м
[Cu med, cong As op]
+26.4 +23.8 86 +36 +36 очень
душно
1008.1 1007.9 23
03 20.05 ЮЗ 5 10 км 9/1 500 м
[Cu med, cong Ac und Ci sp]
+28.1 +24.4 80 +39 +41 очень
душно
1010.1 1009.9 +23.1
06 20.05 З 5 10 км 9/4 480 м
[Cb cap Ac As]
+29.4 +24.5 75 +42 +44 опасность
перегрева
1011.1 1010.9
09 20.05 З 8 3000 м ливневой дождь 9/5 480 м
[Cb cap Ac cuf Ci sp]
+28.8 +24.8 79 +41 +42 опасность
перегрева
1008.7 1008.5
12 20.05 З 3 5000 м слабый дождь {ливн. осадки} 10/5 480 м
[Cb cap As op]
+26.8 +25.7 94 +40 +40 очень
душно
1008.0 1007.8 +30.6 11
15 20.05 ЮЗ 3 6000 м слабый дождь 10/4 500 м
[Cb cap As op]
+26.6 +26.0 97 +40 +40 очень
душно
1009.3 1009.1
18 20.05 З 3 10 км {дождь} 9/4 500 м
[Cu med, cong Ac As]
+27.4 +25.8 91 +41 +41 опасность
перегрева
1009.6 1009.4 3
21 20.05 ЮЗ 2 10 км 9/3 500 м
[Cu med, cong Ac und]
+27.5 +23.7 80 +38 +38 очень
душно
1007.6 1007.4
00 21.05 Ю 2 10 км 9/3 540 м
[Cu med, cong Ac und]
+27.2 +25.5 90 +40 +40 очень
душно
1007.4 1007.2 3

 

Местоположение метеостанции Gan (Мальдивы): широта -0.68 долгота 73.15 высота над уровнем моря 2 м.

В архиве по умолчанию представлена погода в Gan за последнюю неделю. Архивные данные за месяц целиком и за предыдущие месяцы, начиная с января 2011 года, Вы можете получить, выбрав интересующий диапазон дат из раскрывающегося списка и нажав кнопку "Ввод!".


*Определитесь, кто Вы:
робот инопланетянин человек

Внимание! Время в таблицах - всемирное. Для получения местного времени необходимо прибавить поправку, которая в Gan равна 5 ч.

Смотрите также архив погоды в соседних городах и на ближайших метеорологических станциях:

Погода в Kaadedhdhoo (Мальдивы) (130 км)
Погода в Kadhdhoo (Мальдивы) (287 км)
Погода в Male (Мальдивы) (544 км)
Погода в Hanimaadhoo (Мальдивы) (824 км)
Погода в Minicoy (Lakshadweep, Индия) (999 км)
Погода в Galle (Шри Ланка) (1083 км)
Погода в Kanyakumari (Tamil Nadu, Индия) (1087 км)
Погода в Thiruvananthapuram Air (Kerala, Индия) (1101 км)
Погода в Thiruvananthapuram (Kerala, Индия) (1102 км)
Погода в Ratmalana (Шри Ланка) (1120 км)

Пояснения к столбцам:

Ветер - указаны скорость ветра в м/с - средняя за 10 мин, порывы в срок и между сроками (в фигурных скобках) и направление, откуда дует ветер: С - северный, СВ - северо-восточный, В - восточный, ЮВ - юго-восточный, Ю - южный, ЮЗ - юго-западный, З - западный, СЗ - северо-западный.
Видимость - горизонтальная дальность видимости в метрах или километрах. При видимости от 1 до 10 км при отсутствии осадков обычно наблюдается дымка, при ухудшении видимости до 1 км и менее - туман. В сухую погоду видимость может ухудшаться дымом, пылью или мглою.
Явления - указаны атмосферные явления, наблюдавшиеся в срок или в последний час перед сроком; фигурными скобками обозначены явления, наблюдавшиеся между сроками (за 1-3 часа до срока); квадратными скобками обозначены град или гололедные отложения с указанием их диаметра в мм.
Облачность - указаны через наклонную черту общая и нижняя облачность в баллах и высота нижней границы облаков в метрах; квадратными скобками обозначены формы облаков: Ci - перистые, Cs - перисто-слоистые, Cc - перисто-кучевые, Ac - высококучевые, As - высокослоистые, Sc - слоисто-кучевые, Ns - слоисто-дождевые, Cu - кучевые, Cb - кучево-дождевые. Подробнее классификацию облаков см. в Атласе облаков (PDF).
T - Температура воздуха - температура, измеренная на высоте 2 м над землей.
Td - Температура точки росы - температура, при понижении до которой содержащийся в воздухе водяной пар достигнет насыщения.
f - Относительная влажность воздуха - влажноcть воздуха, измеренная на высоте 2 м над землей.
Te - Эффективная температура - температура, которую ощущает одетый по сезону человек в тени. Характеристика душности погоды. При расчете учитывается влияние влажности воздуха и скорости ветра на теплоощущения человека.
Tes - Эффективная температура на солнце - температура, которую ощущает человек, с поправкой на солнечный нагрев. Характеристика знойности погоды. Зависит от высоты солнца над горизонтом, облачности и скорости ветра. Ночью, в пасмурную погоду, а также при ветре 12 м/с и более поправка равна нулю.
P - Атмосферное давление - приведенное к уровню моря атмосферное давление.
Po - Атмосферное давление - измеренное на уровне метеостанции атмосферное давление.
Tmin - Минимальная температура - минимум температуры воздуха на высоте 2 м над землей.
Tmax - Максимальная температура - максимум температуры воздуха на высоте 2 м над землей.
R - Количество осадков - Количество выпавших осадков за период времени, мм. При наведении курсора мыши на число - период времени, за который выпало указанное количество осадков.
R24 - Количество осадков - Количество выпавших осадков за 24 часа, мм.
S - Снежный покров - Высота снежного покрова, см. При наведении курсора мыши на число - состояние снежного покрова и степень покрытия местности в баллах.